Location: Unspecified
(0.0000°N, 0.0000°E)
Time: 06:09:51
(UTC+00:00)

Transit 2A - Pass Details

Date: 04 June 2019
Orbit: 598 x 960 km, 66.7° (Epoch: 15 September)

Event Time Altitude Azimuth Distance (km) Brightness Sun altitude
Rises 14:26:07 0° 355° (N) 3,179 9.6 47.6°
Reaches altitude 10° 14:28:46 10° 4° (N) 2,196 8.8 47.1°
Maximum altitude 14:33:15 34° 69° (ENE) 1,097 7.0 46.1°
Drops below altitude 10° 14:37:23 10° 134° (SE) 2,028 7.9 45.3°
Sets 14:39:44 0° 144° (SE) 2,901 8.6 44.8°
